Location: Poughquag
(41.6090°N, 73.6820°W)
Time: 07:30:12
(UTC-04:00)

Explorer 11/Cluster Stage 4 - All Passes

Search period start: 29 May 2020 00:00
Search period end: 08 June 2020 00:00
Orbit: 467 x 1259 km, 28.8° (Epoch: 28 May)

Date Brightness Start Highest point End Pass type
(mag) Time Alt. Az. Time Alt. Az. Time Alt. Az.
29 May - 07:20:58 10° SSW 07:26:17 22° SSE 07:32:06 10° ESE daylight
29 May - 09:07:54 10° SW 09:14:32 32° S 09:21:35 10° ESE daylight
29 May - 10:56:21 10° WSW 11:03:03 29° SSW 11:09:44 10° SE daylight
29 May - 12:46:37 10° WSW 12:51:14 16° SSW 12:55:42 10° S daylight
30 May - 07:09:55 10° SSW 07:15:13 23° SSE 07:21:05 10° ESE daylight
30 May - 08:56:59 10° WSW 09:03:28 32° S 09:10:29 10° ESE daylight
30 May - 10:45:28 10° WSW 10:51:57 27° SSW 10:58:33 10° SE daylight
30 May - 12:36:03 10° WSW 12:40:07 15° SSW 12:44:07 10° S daylight
31 May - 06:58:56 10° SW 07:04:10 24° SSE 07:10:03 10° ESE daylight
31 May - 08:46:05 10° WSW 08:52:24 31° S 08:59:20 10° ESE daylight
31 May - 10:34:37 10° WSW 10:40:51 26° SSW 10:47:17 10° SE daylight
31 May - 12:25:42 10° SW 12:29:00 13° SSW 12:32:16 10° S daylight
01 Jun - 05:04:10 10° SSE 05:05:31 11° SSE 05:06:55 10° SE daylight
01 Jun - 06:48:01 10° SW 06:53:08 24° SSE 06:58:58 10° ESE daylight
01 Jun - 08:35:15 10° WSW 08:41:22 30° S 08:48:10 10° ESE daylight
01 Jun - 10:23:51 10° WSW 10:29:45 24° SSW 10:35:57 10° SSE daylight
01 Jun - 12:15:48 10° SW 12:17:53 11° SSW 12:19:58 10° SSW daylight
02 Jun - 04:52:39 10° S 04:54:30 11° SSE 04:56:28 10° SE visible
02 Jun - 06:37:09 10° SW 06:42:08 25° SSE 06:47:52 10° ESE daylight
02 Jun - 08:24:27 10° WSW 08:30:20 29° S 08:36:56 10° SE daylight
02 Jun - 10:13:09 10° WSW 10:18:41 22° SSW 10:24:32 10° SSE daylight
03 Jun - 04:41:24 10° S 04:43:32 12° SSE 04:45:48 10° SE visible
03 Jun - 06:26:20 10° SW 06:31:09 25° SSE 06:36:44 10° ESE daylight
03 Jun - 08:13:42 10° WSW 08:19:19 28° S 08:25:40 10° SE daylight
03 Jun - 10:02:33 10° WSW 10:07:37 20° SSW 10:13:02 10° SSE daylight
04 Jun - 04:30:18 10° S 04:32:35 13° SSE 04:35:02 10° SE visible
04 Jun - 06:15:35 10° SW 06:20:12 24° S 06:25:35 10° ESE daylight
04 Jun - 08:03:01 10° WSW 08:08:19 26° S 08:14:23 10° SE daylight
04 Jun - 09:52:03 10° WSW 09:56:34 17° SSW 10:01:24 10° SSE daylight
05 Jun - 04:19:19 10° S 04:21:39 13° SSE 04:24:12 10° SE visible
05 Jun - 06:04:52 10° SW 06:09:16 24° S 06:14:26 10° ESE daylight
05 Jun - 07:52:22 10° WSW 07:57:20 24° S 08:03:02 10° SE daylight
05 Jun - 09:41:43 10° SW 09:45:32 15° SSW 09:49:36 10° S daylight
06 Jun - 04:08:23 10° S 04:10:45 13° SSE 04:13:19 10° SE visible
06 Jun - 05:54:11 10° SW 05:58:22 23° S 06:03:15 10° SE daylight
06 Jun - 07:41:48 10° WSW 07:46:24 22° S 07:51:38 10° SE daylight
06 Jun - 09:31:40 10° SW 09:34:31 13° SSW 09:37:32 10° S daylight
07 Jun - 03:57:32 10° SSW 03:59:52 14° SSE 04:02:24 10° SE visible
07 Jun - 05:43:33 10° SW 05:47:28 22° S 05:52:03 10° SE daylight
07 Jun - 07:31:19 10° SW 07:35:27 19° S 07:40:11 10° SSE daylight
07 Jun - 09:22:34 10° SSW 09:23:32 10° SSW 09:24:31 10° SSW daylight
